Weather History for Redmond, OR

Change the Weather History Date:

Monday, March 3, 2014

  Actual Average Record
Temperature  
Mean Temperature 45 °F 38 °F  
Max Temperature 57 °F 51 °F 70 °F (1986)
Min Temperature 32 °F 25 °F 8 °F (1960)
Degree Days  
Heating Degree Days 20 27  
Month to date heating degree days 79 83  
Since 1 July heating degree days 4872 4756  
Cooling Degree Days 0 0  
Month to date cooling degree days 0 0  
Year to date cooling degree days 0 0  
Moisture  
Dew Point 35 °F    
Average Humidity 67    
Maximum Humidity 92    
Minimum Humidity 41    
Precipitation  
Precipitation T in 0.02 in 0.28 in (1991)
Month to date precipitation 0.14 0.06  
Year to date precipitation 2.05 1.68  
Sea Level Pressure  
Sea Level Pressure 29.87 in    
Wind  
Wind Speed 12 mph (SSW)    
Max Wind Speed 26 mph    
Max Gust Speed 34 mph    
Visibility 10 miles    
Events Rain    
T = Trace of Precipitation, MM = Missing Value Source: NWS Daily Summary

Daily Weather History Graph

Daily Weather History Graph

Search for Another Location

Airport:

Trip Planner

Search our weather history database for the weather conditions in past years. The results will help you decide how hot, cold, wet, or windy it might be!

Date:

Astronomy

Mar. 03, 2014 Rise Set
Actual Time 6:38 AM PST 5:55 PM PST
Civil Twilight 6:09 AM PST 6:24 PM PST
Nautical Twilight 5:35 AM PST 6:58 PM PST
Astronomical Twilight 5:01 AM PST 7:31 PM PST
Moon 7:42 AM PST (3/3) 9:12 PM PST (3/3)
Length of Visible Light 12h 15m
Length of Day
11h 17m
Waxing Crescent, 8% of the Moon is Illuminated
Mar 3
Waxing Crescent
Mar 8
First Quarter
Mar 16
Full
Mar 23
Last Quarter
Mar 30
New

Hourly Weather History & Observations

Time (PST) Temp. Windchill Dew Point Humidity Pressure Visibility Wind Dir Wind Speed Gust Speed Precip Events Conditions
12:56 AM 44.1 °F 39.0 °F 33.1 °F 65% 29.86 in 10.0 mi South 9.2 mph - N/A   Mostly Cloudy
1:56 AM 44.1 °F 37.1 °F 34.0 °F 68% 29.86 in 10.0 mi SSW 15.0 mph 21.9 mph N/A   Clear
2:56 AM 43.0 °F 36.4 °F 35.1 °F 74% 29.85 in 10.0 mi SSW 12.7 mph - N/A   Scattered Clouds
3:56 AM 42.1 °F 36.1 °F 35.1 °F 76% 29.84 in 10.0 mi South 10.4 mph - N/A   Mostly Cloudy
4:56 AM 43.0 °F 36.0 °F 35.1 °F 74% 29.83 in 10.0 mi South 13.8 mph - N/A   Mostly Cloudy
5:56 AM 42.1 °F 37.7 °F 34.0 °F 73% 29.81 in 10.0 mi SSW 6.9 mph - N/A   Clear
6:56 AM 41.0 °F 36.4 °F 34.0 °F 76% 29.82 in 10.0 mi South 6.9 mph - N/A   Partly Cloudy
7:56 AM 44.1 °F 37.4 °F 35.1 °F 71% 29.82 in 10.0 mi South 13.8 mph - N/A   Partly Cloudy
8:56 AM 46.0 °F 39.3 °F 36.0 °F 68% 29.83 in 10.0 mi South 16.1 mph 25.3 mph N/A   Clear
9:56 AM 45.0 °F 37.1 °F 36.0 °F 71% 29.85 in 10.0 mi SSW 19.6 mph 31.1 mph N/A   Mostly Cloudy
10:56 AM 48.0 °F - 37.0 °F 66% 29.82 in 10.0 mi South 19.6 mph 26.5 mph N/A   Clear
11:56 AM 52.0 °F - 37.9 °F 59% 29.81 in 10.0 mi South 19.6 mph - N/A   Clear
12:56 PM 57.0 °F - 36.0 °F 45% 29.79 in 10.0 mi WSW 23.0 mph 31.1 mph N/A   Partly Cloudy
1:56 PM 55.9 °F - 32.0 °F 40% 29.81 in 10.0 mi West 15.0 mph 25.3 mph N/A   Partly Cloudy
2:56 PM 54.0 °F - 35.1 °F 49% 29.82 in 10.0 mi WSW 11.5 mph - N/A   Partly Cloudy
3:56 PM 54.0 °F - 33.1 °F 45% 29.83 in 10.0 mi West 11.5 mph - N/A   Mostly Cloudy
4:56 PM 46.9 °F - 39.0 °F 74% 29.88 in 10.0 mi NW 10.4 mph - 0.00 in Rain Light Rain
5:56 PM 46.0 °F 41.0 °F 37.9 °F 73% 29.92 in 10.0 mi WSW 10.4 mph - 0.00 in   Overcast
6:56 PM 44.1 °F 40.8 °F 37.9 °F 79% 29.94 in 10.0 mi WSW 5.8 mph - 0.00 in   Mostly Cloudy
7:56 PM 42.1 °F 37.7 °F 37.0 °F 82% 29.95 in 10.0 mi South 6.9 mph - N/A   Mostly Cloudy
8:56 PM 41.0 °F 39.0 °F 36.0 °F 82% 29.97 in 10.0 mi ENE 3.5 mph - N/A   Mostly Cloudy
9:56 PM 37.0 °F 31.6 °F 34.0 °F 89% 29.97 in 10.0 mi SSE 6.9 mph - N/A   Partly Cloudy
10:56 PM 35.1 °F 32.2 °F 33.1 °F 92% 29.98 in 10.0 mi SSE 3.5 mph - N/A   Partly Cloudy
11:56 PM 32.0 °F 28.7 °F 30.9 °F 96% 29.98 in 10.0 mi East 3.5 mph - N/A   Clear